Location: Saratoga Springs
(43.0831°N, 73.7850°W)
Time: 18:16:14
(UTC-04:00)

Tiros 1 - Pass Details

Date: 19 April 2024
Orbit: 624 x 657 km, 48.4° (Epoch: 28 May)

Event Time Altitude Azimuth Distance (km) Brightness Sun altitude
Rises 02:15:40 0° 251° (WSW) 2,921 - -32.5°
Reaches altitude 10° 02:18:00 10° 253° (WSW) 2,009 - -32.3°
Maximum altitude 02:22:37 71° 338° (NNW) 664 - -31.9°
Exits shadow 02:25:02 27° 57° (ENE) 1,196 8.9 -31.7°
Drops below altitude 10° 02:27:12 10° 63° (ENE) 2,000 10.3 -31.6°
Sets 02:29:32 0° 66° (ENE) 2,906 11.2 -31.4°
